This demonstration page uses our WeatherBlox Daily Observations layout. Learn more.

Left ArrowRight Arrow

Hourly Observations for June 26, 2015

Temp ( °F °C ) Dew Point ( °F °C ) Humidity (%) Winds ( mph kmh ) Pressure ( in mb ) Visibility ( mi km ) Precip ( " mm )
12:53 am 00:53 Clear 60 15.6 49 9.4 67 67 W 3 6 30.05 1018 10 16 0.00 0.00
1:53 am 01:53 Clear 56 13.3 49 9.4 77 77 S 3 6 30.04 1017 10 16 0.00 0.00
2:53 am 02:53 Clear 56 13.3 49 9.4 77 77 Calm 30.04 1017 10 16 0.00 0.00
3:53 am 03:53 Clear 52 11.1 47 8.3 83 83 Calm 30.06 1018 10 16 0.00 0.00
4:53 am 04:53 Clear 53 11.7 46 7.8 77 77 Calm 30.06 1018 10 16 0.00 0.00
5:53 am 05:53 Sunny 52 11.1 47 8.3 83 83 Calm 30.07 1018 10 16 0.00 0.00
6:53 am 06:53 Sunny 57 13.9 49 9.4 74 74 Calm 30.07 1018 10 16 0.00 0.00
7:53 am 07:53 Sunny 67 19.4 52 11.1 59 59 SSW 3 6 30.07 1018 10 16 0.00 0.00
8:53 am 08:53 Sunny 74 23.3 53 11.7 48 48 SW 13 20 30.06 1018 10 16 0.00 0.00
9:53 am 09:53 Sunny 81 27.2 49 9.4 33 33 SW 13 20 30.06 1018 10 16 0.00 0.00
10:53 am 10:53 Sunny 87 30.6 47 8.3 25 25 SW 14 22 30.04 1017 10 16 0.00 0.00
11:53 am 11:53 Sunny 89 31.7 46 7.8 23 23 S 9 15 30.02 1017 10 16 0.00 0.00
12:53 pm 12:53 Sunny 92 33.3 45 7.2 20 20 SSW 10 17 30.01 1016 10 16 0.00 0.00
1:53 pm 13:53 Sunny 92 33.3 43 6.1 18 18 SSW 8 13 30.00 1016 10 16 0.00 0.00
2:53 pm 14:53 Mostly Cloudy 95 35 43 6.1 17 17 W 17 28 29.98 1015 10 16 0.00 0.00
3:53 pm 15:53 Partly Cloudy 97 36.1 41 5 14 14 W 7 11 29.97 1015 10 16 0.00 0.00
4:53 pm 16:53 Sunny 96 35.6 41 5 15 15 VRB 7 11 29.96 1015 10 16 0.00 0.00
5:53 pm 17:53 Sunny 96 35.6 40 4.4 14 14 VRB 5 7 29.96 1014 10 16 0.00 0.00
6:53 pm 18:53 Sunny 95 35 39 3.9 14 14 NW 9 15 29.94 1014 10 16 0.00 0.00
7:53 pm 19:53 Sunny 91 32.8 39 3.9 16 16 N 17 28 29.94 1014 10 16 0.00 0.00
8:53 pm 20:53 Sunny 87 30.6 40 4.4 19 19 N 12 19 29.95 1014 10 16 0.00 0.00
9:53 pm 21:53 Clear 82 27.8 39 3.9 22 22 N 9 15 29.95 1014 10 16 0.00 0.00
10:53 pm 22:53 Clear 68 20 44 6.7 42 42 SE 7 11 29.97 1015 10 16 0.00 0.00
11:53 pm 23:53 Clear 68 20 45 7.2 44 44 E 7 11 29.98 1015 10 16 0.00 0.00

Powered by AerisWeather